Weather History for Imperial, NE

Change the Weather History Date:

Thursday, May 2, 2013

  Actual Average Record
Temperature  
Mean Temperature 40 °F 54 °F  
Max Temperature 51 °F 68 °F 89 °F (2001)
Min Temperature 29 °F 41 °F 15 °F (1907)
Degree Days  
Heating Degree Days 25 11  
Month to date heating degree days 55 22  
Cooling Degree Days 0 0  
Month to date cooling degree days 0 0  
Year to date cooling degree days 2 1  
Moisture  
Dew Point 25 °F    
Average Humidity 57    
Maximum Humidity 85    
Minimum Humidity 28    
Precipitation  
Precipitation 0.00 in 0.10 in 1.32 in (1988)
Sea Level Pressure  
Sea Level Pressure 30.64 in    
Wind  
Wind Speed 9 mph (NW)    
Max Wind Speed 20 mph    
Max Gust Speed 25 mph    
Visibility 10 miles    
Events      
T = Trace of Precipitation, MM = Missing Value Source: NWS Daily Summary

Daily Weather History Graph

Daily Weather History Graph

Search for Another Location

Airport:

Trip Planner

Search our weather history database for the weather conditions in past years. The results will help you decide how hot, cold, wet, or windy it might be!

Date:

Astronomy

May. 02, 2013 Rise Set
Actual Time 5:43 AM MDT 7:43 PM MDT
Civil Twilight 5:14 AM MDT 8:13 PM MDT
Nautical Twilight 4:37 AM MDT 8:49 PM MDT
Astronomical Twilight 3:58 AM MDT 9:29 PM MDT
Moon 1:34 AM MDT (5/2) 12:33 PM MDT (5/2)
Length of Visible Light 14h 59m
Length of Day
13h 59m
Waning Gibbous, 47% of the Moon is Illuminated
May 2
Waning Gibbous
May 9
New
May 17
First Quarter
May 24
Full
May 31
Last Quarter

Hourly Weather History & Observations

Time (MDT) Temp. Windchill Dew Point Humidity Pressure Visibility Wind Dir Wind Speed Gust Speed Precip Events Conditions
12:53 AM 30.0 °F - 27.0 °F 88% 30.68 in 10.0 mi Calm Calm - N/A   Overcast
1:53 AM 30.9 °F 26.2 °F 27.0 °F 85% 30.69 in 10.0 mi NNW 4.6 mph - N/A   Overcast
2:53 AM 30.0 °F 24.1 °F 26.1 °F 85% 30.70 in 10.0 mi NNW 5.8 mph - N/A   Overcast
3:53 AM 28.9 °F 25.2 °F 25.0 °F 85% 30.71 in 10.0 mi NNW 3.5 mph - N/A   Overcast
4:53 AM 30.0 °F 22.4 °F 26.1 °F 85% 30.71 in 10.0 mi NW 8.1 mph - N/A   Mostly Cloudy
5:53 AM 30.0 °F 20.5 °F 25.0 °F 82% 30.73 in 10.0 mi NW 11.5 mph - N/A   Scattered Clouds
6:53 AM 30.0 °F 21.1 °F 26.1 °F 85% 30.76 in 10.0 mi NNW 10.4 mph - N/A   Mostly Cloudy
7:53 AM 30.9 °F 21.2 °F 25.0 °F 79% 30.76 in 10.0 mi NW 12.7 mph - N/A   Overcast
8:53 AM 35.1 °F 26.9 °F 27.0 °F 72% 30.74 in 10.0 mi NW 11.5 mph - N/A   Partly Cloudy
9:53 AM 37.0 °F 28.9 °F 28.0 °F 70% 30.74 in 10.0 mi NW 12.7 mph - N/A   Clear
10:53 AM 43.0 °F 37.2 °F 30.9 °F 62% 30.73 in 10.0 mi NW 10.4 mph - N/A   Clear
11:53 AM 46.0 °F 39.9 °F 28.9 °F 51% 30.71 in 10.0 mi NW 13.8 mph - N/A   Clear
12:53 PM 46.9 °F - 24.1 °F 41% 30.67 in 10.0 mi NW 11.5 mph 24.2 mph N/A   Partly Cloudy
1:53 PM 48.9 °F - 26.1 °F 41% 30.65 in 10.0 mi NNW 13.8 mph 25.3 mph N/A   Scattered Clouds
2:53 PM 48.9 °F - 23.0 °F 36% 30.62 in 10.0 mi WNW 12.7 mph - N/A   Partly Cloudy
3:53 PM 51.1 °F - 19.0 °F 28% 30.58 in 10.0 mi North 11.5 mph - N/A   Clear
4:53 PM 51.1 °F - 21.0 °F 31% 30.56 in 10.0 mi NNW 10.4 mph - N/A   Clear
5:53 PM 48.0 °F - 21.0 °F 34% 30.55 in 10.0 mi NNW 12.7 mph - N/A   Clear
6:53 PM 48.9 °F - 21.0 °F 33% 30.52 in 10.0 mi NW 10.4 mph - N/A   Partly Cloudy
7:53 PM 44.1 °F 42.5 °F 25.0 °F 47% 30.52 in 10.0 mi West 3.5 mph - N/A   Clear
8:53 PM 41.0 °F - 25.0 °F 53% 30.53 in 10.0 mi Calm Calm - N/A   Clear
9:53 PM 39.0 °F - 26.1 °F 60% 30.52 in 10.0 mi Calm Calm - N/A   Clear
10:53 PM 35.1 °F 32.2 °F 27.0 °F 72% 30.49 in 10.0 mi SW 3.5 mph - N/A   Clear
11:53 PM 33.1 °F 26.9 °F 26.1 °F 75% 30.47 in 10.0 mi WSW 6.9 mph - N/A   Clear